Regional Weather Roundup
Issued by NWS

Home | Current Version | Previous Version | Graphics & Text | Print | Product List | Glossary On
Versions: 1 2 3 4 5 6 7 8 9 10 11 12 13 14 15 16 17 18 19 20 21 22 23 24 25 26 27 28 29 30 31 32 33 34 35 36 37 38 39 40 41 42 43 44 45 46 47 48 49 50
000
ASUS43 KOAX 200002
RWRNE

WEATHER ROUNDUP FOR NEBRASKA
NATIONAL WEATHER SERVICE OMAHA NE
700 PM CDT THU APR 19 2018

NOTES: SATELLITE DATA IS BEING USED TO AUGMENT CLOUD COVER ABOVE
       12000 FEET.
       "FAIR" INDICATES FEW OR NO CLOUDS BELOW 12,000 FEET WITH NO
       SIGNIFICANT WEATHER AND/OR OBSTRUCTIONS TO VISIBILITY.


NEZ001>004-019>022-054>056-200100-
NEBRASKA PANHANDLE

CITY           SKY/WX    TMP DP  RH WIND       PRES   REMARKS
SCOTTSBLUFF    PTSUNNY   60  29  30 SE24G32   30.09S
6HR MIN TEMP:  56; 6HR MAX TEMP:  63;

ALLIANCE       PTSUNNY   55  30  38 SE25      30.14F
6HR MIN TEMP:  53; 6HR MAX TEMP:  59;

CHADRON        CLOUDY    58  30  34 SE18G28   30.14R
6HR MIN TEMP:  55; 6HR MAX TEMP:  62;

GORDON         FAIR      56  27  32 SE18      30.18F
6HR MIN TEMP:  53; 6HR MAX TEMP:  60;

KIMBALL        CLOUDY    57  24  27 SE29      30.09S
SIDNEY         PTSUNNY   58  27  30 SE25G36   30.13F
6HR MIN TEMP:  56; 6HR MAX TEMP:  62;

$$

NEZ057>060-069>072-079>082-200100-
SOUTHWEST NEBRASKA

CITY           SKY/WX    TMP DP  RH WIND       PRES   REMARKS
NORTH PLATTE   SUNNY     56  29  35 S15G25    30.25F
6HR MIN TEMP:  53; 6HR MAX TEMP:  60;

IMPERIAL       MOSUNNY   58  27  30 E25G33    30.19F
6HR MIN TEMP:  55; 6HR MAX TEMP:  62;

LEXINGTON      MOSUNNY   56  26  31 SE13      30.30R
MCCOOK         SUNNY     57  26  30 SE15      30.26S
6HR MIN TEMP:  53; 6HR MAX TEMP:  61;

OGALLALA       FAIR      58  26  29 SE17G26   30.20S
$$

NEZ005>010-023>029-035>040-094-200100-
NORTH CENTRAL NEBRASKA

CITY           SKY/WX    TMP DP  RH WIND       PRES   REMARKS
VALENTINE      MOSUNNY   55  27  34 SE21G28   30.27S
6HR MIN TEMP:  50; 6HR MAX TEMP:  57;

AINSWORTH      MOSUNNY   52  26  36 SE14      30.29S
BROKEN BOW     MOSUNNY   53  26  35 SE14      30.29S
6HR MIN TEMP:  49; 6HR MAX TEMP:  56;

O`NEILL        MOSUNNY   50  28  41 E13       30.35F
ORD            MOSUNNY   53  21  28 SE14      30.31F
6HR MIN TEMP:  48; 6HR MAX TEMP:  54;

THEDFORD       MOSUNNY   54  29  38 SE16G22   30.27S
$$

NEZ041-046>049-061>064-073>077-083>087-200100-
SOUTH CENTRAL NEBRASKA

CITY           SKY/WX    TMP DP  RH WIND       PRES   REMARKS
GRAND ISLAND   SUNNY     56  26  31 E12       30.33F
6HR MIN TEMP:  48; 6HR MAX TEMP:  57;

AURORA         SUNNY     56  24  29 E9        30.32F
HASTINGS       SUNNY     54  25  32 SE10      30.32S
6HR MIN TEMP:  49; 6HR MAX TEMP:  57;

HEBRON         CLOUDY    58  25  28 E9        30.34S
HOLDREGE       CLOUDY    55  29  36 SE12G22   30.30S
KEARNEY        MOSUNNY   54  25  32 SE15      30.31F
YORK             N/A     55  25  30 E7        30.34S
$$

NEZ011>018-030>034-042>045-200100-
NORTHEAST NEBRASKA

CITY           SKY/WX    TMP DP  RH WIND       PRES   REMARKS
NORFOLK        MOSUNNY   52  22  30 SE8       30.34F
6HR MIN TEMP:  48; 6HR MAX TEMP:  55;

ALBION         MOSUNNY   55  24  29 SE10      30.34F
BLAIR          SUNNY     55  28  35 E7        30.37S
COLUMBUS       SUNNY     53  25  33 E9        30.37S
FREMONT        SUNNY     58  28  31 E6        30.37F
TEKAMAH        SUNNY     54  29  38 E8        30.38S
6HR MIN TEMP:  48; 6HR MAX TEMP:  57;

WAYNE          MOSUNNY   53  26  34 SE7       30.37F
$$

NEZ050>053-065>068-078-088>093-200100-
SOUTHEAST NEBRASKA

CITY           SKY/WX    TMP DP  RH WIND       PRES   REMARKS
LINCOLN        SUNNY     58  26  29 E8        30.37S
6HR MIN TEMP:  52; 6HR MAX TEMP:  60;

OMAHA EPPLEY   MOSUNNY   58  27  30 E7        30.37F
6HR MIN TEMP:  52; 6HR MAX TEMP:  60;

BEATRICE       SUNNY     58  28  31 E8        30.35S
FALLS CITY     SUNNY     57  27  31 E7        30.35F
6HR MIN TEMP:  53; 6HR MAX TEMP:  60;

NEBRASKA CITY  SUNNY     56  31  37 E9        30.36F
PLATTSMOUTH    SUNNY     57  28  32 E6        30.36F
$$

NEZ044-045-051>053-067-200100-
OMAHA AREA

CITY           SKY/WX    TMP DP  RH WIND       PRES   REMARKS
OMAHA EPPLEY   MOSUNNY   58  27  30 E7        30.37F
6HR MIN TEMP:  52; 6HR MAX TEMP:  60;

BLAIR          SUNNY     55  28  35 E7        30.37S
FREMONT        SUNNY     58  28  31 E6        30.37F
MILLARD        SUNNY     58  30  34 E7        30.37F
OFFUTT AFB     SUNNY     58  29  33 E7        30.36F
PLATTSMOUTH    SUNNY     57  28  32 E6        30.36F
WAHOO          FAIR      57  21  25 E8        30.36F
$$



USA.gov is the U.S. government's official web portal to all federal, state and local government web resources and services.